Ely, NV

12:46 AM PDT on July 27, 2017 (GMT -0700)
Ely

Weather History for KELY - October, 2013

Change the Weather History Date:

Saturday, October 5, 2013

  Actual Average Record
Temperature  
Mean Temperature 40 °F 49 °F  
Max Temperature 62 °F 67 °F 81 °F (1964)
Min Temperature 17 °F 31 °F 13 °F (1995)
Degree Days  
Heating Degree Days 25 16  
Month to date heating degree days 102 77  
Since 1 July heating degree days 333 393  
Cooling Degree Days 0 0  
Month to date cooling degree days 0 0  
Year to date cooling degree days 387 218  
Moisture  
Dew Point 14 °F    
Average Humidity 47    
Maximum Humidity 80    
Minimum Humidity 13    
Precipitation  
Precipitation 0.00 in 0.03 in 0.70 in (2011)
Month to date precipitation T 0.16  
Year to date precipitation 5.86 7.63  
Snow  
Snow 0.00 in 0.00 in 3.50 in (2007)
Month to date snowfall 0.0 0.3  
Since 1 July snowfall T 0.7  
Since 1 September snowfall T 0.7  
Snow Depth 0.00 in    
Sea Level Pressure  
Sea Level Pressure 30.45 in    
Wind  
Wind Speed 6 mph (SSE)    
Max Wind Speed 16 mph    
Max Gust Speed 18 mph    
Visibility 10 miles    
Events      
T = Trace of Precipitation, MM = Missing Value Source: NWS Daily Summary

Daily Weather History Graph

Daily Weather History Graph

Search for Another Location

Airport or City:

Trip Planner

Search our weather history database for the weather conditions in past years. The results will help you decide how hot, cold, wet, or windy it might be!

Date:

Astronomy

Oct. 05, 2013 Rise Set
Actual Time 6:39 AM PDT 6:15 PM PDT
Civil Twilight 6:12 AM PDT 6:41 PM PDT
Nautical Twilight 5:41 AM PDT 7:12 PM PDT
Astronomical Twilight 5:10 AM PDT 7:43 PM PDT
Moon 7:22 AM PDT (10/5) 6:37 PM PDT (10/5)
Length of Visible Light 12h 29m
Length of Day
11h 35m
New Moon, 1% of the Moon is Illuminated
Oct 5
New Moon
Oct 11
First Quarter
Oct 18
Full
Oct 26
Last Quarter
Nov 3
New

Hourly Weather History & Observations

Time (PDT) Temp. Windchill Dew Point Humidity Pressure Visibility Wind Dir Wind Speed Gust Speed Precip Events Conditions
12:53 AM 23.0 °F - 15.1 °F 72% 30.44 in 10.0 mi Calm Calm - N/A   Clear
1:53 AM 21.0 °F 10.6 °F 14.0 °F 74% 30.45 in 10.0 mi SSE 9.2 mph - N/A   Clear
2:53 AM 19.9 °F 8.6 °F 14.0 °F 78% 30.45 in 10.0 mi South 10.4 mph - N/A   Clear
3:53 AM 17.1 °F 7.6 °F 12.0 °F 81% 30.48 in 10.0 mi South 6.9 mph - N/A   Clear
4:53 AM 19.0 °F 7.5 °F 12.9 °F 77% 30.48 in 10.0 mi South 10.4 mph - N/A   Clear
5:53 AM 18.0 °F 6.9 °F 12.9 °F 81% 30.50 in 10.0 mi South 9.2 mph - N/A   Clear
6:53 AM 18.0 °F 12.7 °F 12.9 °F 81% 30.55 in 10.0 mi South 3.5 mph - N/A   Clear
7:53 AM 25.0 °F 15.5 °F 17.1 °F 72% 30.53 in 10.0 mi South 9.2 mph - N/A   Clear
8:53 AM 35.1 °F - 21.0 °F 57% 30.50 in 10.0 mi Calm Calm - N/A   Clear
9:53 AM 42.1 °F - 21.0 °F 43% 30.50 in 10.0 mi Calm Calm - N/A   Clear
10:53 AM 46.9 °F - 19.9 °F 34% 30.47 in 10.0 mi Calm Calm - N/A   Clear
11:53 AM 48.9 °F - 17.1 °F 28% 30.47 in 10.0 mi Calm Calm - N/A   Clear
12:53 PM 53.1 °F - 14.0 °F 21% 30.43 in 10.0 mi Variable 4.6 mph - N/A   Clear
1:53 PM 57.0 °F - 12.9 °F 18% 30.40 in 10.0 mi North 8.1 mph - N/A   Clear
2:53 PM 60.1 °F - 15.1 °F 17% 30.38 in 10.0 mi NE 4.6 mph - N/A   Clear
3:53 PM 61.0 °F - 12.9 °F 15% 30.38 in 10.0 mi Calm Calm - N/A   Clear
4:53 PM 62.1 °F - 10.0 °F 13% 30.35 in 10.0 mi North 5.8 mph - N/A   Clear
5:53 PM 57.0 °F - 10.9 °F 16% 30.38 in 10.0 mi North 9.2 mph - N/A   Clear
6:53 PM 46.9 °F - 12.9 °F 25% 30.44 in 10.0 mi NE 4.6 mph - N/A   Clear
7:53 PM 41.0 °F 37.1 °F 10.0 °F 28% 30.46 in 10.0 mi WNW 5.8 mph - N/A   Clear
8:53 PM 35.1 °F 27.4 °F 10.9 °F 37% 30.45 in 10.0 mi South 10.4 mph - N/A   Clear
9:53 PM 33.1 °F 24.9 °F 12.9 °F 43% 30.43 in 10.0 mi South 10.4 mph - N/A   Clear
10:53 PM 33.1 °F 24.9 °F 12.9 °F 43% 30.42 in 10.0 mi South 10.4 mph - N/A   Clear
11:53 PM 30.0 °F 20.5 °F 12.9 °F 49% 30.42 in 10.0 mi South 11.5 mph - N/A   Clear